Notices

What's New in latest Release from April 7th, 2021:

- Updated Glossary, including Speed of Maximum Gust, and Total Hourly Precipitation

- Updated national and regional climate services offices contacts and prices information

- Addition of station inventory lists for 1981-2010, 1971-2000, and 1961-1990 Normals.

If you haven't already, please take our survey and provide feedback about our website: https://eccc.sondage-survey.ca/f/LanguageSelection.aspx?s=442ca660-fcf1-47c0-95a9-59707d6fd709

Hourly Data Report for August 24, 2004

SHERBROOKE A
QUEBEC

45°26'00.000" N
71°41'00.000" W
241.40 m
7028124
71610
YSC

Download Data

Hourly Data (August 2004)
Hourly Data Report for August 24, 2004
TIME
LST
Temp Definition
°C
Dew Point Definition
°C
Rel Hum Definition
%
Precip. Amount Definition
mm

Wind Dir Definition
10's deg

Wind Spd Definition
km/h
Visibility Definition
km
Stn Press Definition
kPa
Hmdx Definition


Wind Chill Definition


Weather Definition


00:00 8.4 7.0 91   29 7 15.0 99.15      
01:00 6.9 5.9 93   29 11 15.0 99.19      
02:00 7.3 6.2 93   30 9 15.0 99.21      
03:00 5.7 4.2 90   17 6 15.0 99.24      
04:00 5.7 5.1 96     0 15.0 99.33      
05:00 5.6 4.8 95     0 15.0 99.43      
06:00 5.9 5.1 95     0 15.0 99.49      
07:00 8.6 7.1 90   23 6 24.1 99.53     Mainly Clear
08:00 10.3 8.0 86   29 4 24.1 99.54     Mainly Clear
09:00 12.8 8.0 73   26 11 24.1 99.56     Mainly Clear
10:00 14.3 7.1 62   29 11 24.1 99.55     Mainly Clear
11:00 16.3 8.5 60   31 13 24.1 99.54     Mainly Clear
12:00 17.0 8.3 57   29 17 24.1 99.52     Mainly Clear
13:00 17.5 8.6 56   33 15 24.1 99.52     Mainly Clear
14:00 18.4 7.6 49   30 6 24.1 99.49     Mainly Clear
15:00 18.7 7.8 49   30 11 24.1 99.48     Mainly Clear
16:00 18.7 8.8 53   29 9 24.1 99.48     Mainly Clear
17:00 17.9 8.3 53   31 9 15.0 99.51      
18:00 16.0 8.6 61   32 6 15.0 99.53      
19:00 12.1 8.8 80   35 4 15.0 99.60      
20:00 9.6 7.3 86     0 15.0 99.67      
21:00 8.9 7.8 93   8 6 15.0 99.67      
22:00 8.0 7.3 95   9 7 15.0 99.67      
23:00 7.5 6.7 95   10 4 15.0 99.73      

Notes on Data Quality.

Legend

  • E = Estimated
  • M = Missing
  • NA = Not Available*
  • [empty] = Indicates an unobserved value
Date modified: